owner,sensor,date,latitude,longitude,vertical_datum,wind_speed,wind_to_direction,wind_speed_of_gust,qcFlag 
CenGOOS,ioos:station:wmo:42067:1,2016-10-07T14:40Z,30.0430,-88.6490,5.0,5.9,55.3,7.2,'1111122,1111122,1111122' 
CenGOOS,ioos:station:wmo:42067:1,2016-10-11T23:40Z,30.0430,-88.6490,5.0,6.6,103.6,8.1,'1111122,1111122,1111122' 
CenGOOS,ioos:station:wmo:42067:1,2016-10-12T05:40Z,30.0430,-88.6490,5.0,6.0,112.6,7.3,'1111122,1111122,1111122' 
CenGOOS,ioos:station:wmo:42067:1,2016-10-12T08:40Z,30.0430,-88.6490,5.0,3.3,119.3,4.7,'1111122,1111122,1111122' 
CenGOOS,ioos:station:wmo:42067:1,2016-10-12T11:40Z,30.0430,-88.6490,5.0,3.4,98.8,4.3,'1111122,1111122,1111122' 
CenGOOS,ioos:station:wmo:42067:1,2016-10-12T14:40Z,30.0430,-88.6490,5.0,6.5,80.0,7.9,'1111122,1111122,1111122' 
CenGOOS,ioos:station:wmo:42067:1,2016-10-12T17:40Z,30.0430,-88.6490,5.0,7.4,100.6,8.8,'1111122,1111122,1111122' 
CenGOOS,ioos:station:wmo:42067:1,2016-10-12T20:40Z,30.0430,-88.6490,5.0,6.8,109.2,8.1,'1111122,1111122,1111122' 
CenGOOS,ioos:station:wmo:42067:1,2016-10-12T23:40Z,30.0430,-88.6490,5.0,3.9,115.4,5.3,'1111122,1111122,1111122' 
CenGOOS,ioos:station:wmo:42067:1,2016-10-13T02:40Z,30.0430,-88.6490,5.0,4.1,119.4,5.0,'1111122,1111122,1111122' 
CenGOOS,ioos:station:wmo:42067:1,2016-10-13T05:40Z,30.0430,-88.6490,5.0,2.1,90.8,2.6,'1111122,1111122,1111122' 
CenGOOS,ioos:station:wmo:42067:1,2016-10-13T08:40Z,30.0430,-88.6490,5.0,4.2,56.7,5.1,'1111122,1111122,1111122' 
CenGOOS,ioos:station:wmo:42067:1,2016-10-13T11:40Z,30.0430,-88.6490,5.0,5.2,57.6,6.3,'1111122,1111122,1111122' 
CenGOOS,ioos:station:wmo:42067:1,2016-10-13T14:40Z,30.0430,-88.6490,5.0,6.3,55.9,7.5,'1111122,1111122,1111122' 
CenGOOS,ioos:station:wmo:42067:1,2016-10-13T17:40Z,30.0430,-88.6490,5.0,5.8,66.7,6.8,'1111122,1111122,1111122' 
CenGOOS,ioos:station:wmo:42067:1,2016-10-13T20:40Z,30.0430,-88.6490,5.0,3.2,94.6,4.1,'1111122,1111122,1111122' 
CenGOOS,ioos:station:wmo:42067:1,2016-10-14T02:40Z,30.0430,-88.6490,5.0,2.7,138.6,3.4,'1111122,1111122,1111122' 
CenGOOS,ioos:station:wmo:42067:1,2016-10-14T05:40Z,30.0430,-88.6490,5.0,1.0,248.9,1.3,'1111122,1111122,1111122' 
CenGOOS,ioos:station:wmo:42067:1,2016-10-14T08:40Z,30.0430,-88.6490,5.0,1.1,45.1,1.8,'1111122,1111122,1111122' 
CenGOOS,ioos:station:wmo:42067:1,2016-10-14T14:40Z,30.0430,-88.6490,5.0,4.0,50.8,5.0,'1111122,1111122,1111122' 
CenGOOS,ioos:station:wmo:42067:1,2016-10-14T20:40Z,30.0430,-88.6490,5.0,3.0,76.0,3.6,'1111122,1111122,1111122' 
CenGOOS,ioos:station:wmo:42067:1,2016-10-14T23:40Z,30.0430,-88.6490,5.0,4.2,99.0,5.1,'1111122,1111122,1111122' 
CenGOOS,ioos:station:wmo:42067:1,2016-10-15T02:40Z,30.0430,-88.6490,5.0,5.4,113.4,6.7,'1111122,1111122,1111122' 
CenGOOS,ioos:station:wmo:42067:1,2016-10-15T05:40Z,30.0430,-88.6490,5.0,4.4,109.5,5.7,'1111122,1111122,1111122' 
CenGOOS,ioos:station:wmo:42067:1,2016-10-15T08:40Z,30.0430,-88.6490,5.0,6.7,121.8,8.2,'1111122,1111122,1111122' 
CenGOOS,ioos:station:wmo:42067:1,2016-10-15T17:40Z,30.0430,-88.6490,5.0,5.7,80.4,7.0,'1111122,1111122,1111122' 
CenGOOS,ioos:station:wmo:42067:1,2016-10-16T02:40Z,30.0430,-88.6490,5.0,6.4,118.7,7.4,'1111122,1111122,1111122' 
CenGOOS,ioos:station:wmo:42067:1,2016-10-16T05:40Z,30.0430,-88.6490,5.0,6.7,116.3,8.4,'1111122,1111122,1111122' 
CenGOOS,ioos:station:wmo:42067:1,2016-10-16T08:40Z,30.0430,-88.6490,5.0,5.7,117.4,6.7,'1111122,1111122,1111122' 
CenGOOS,ioos:station:wmo:42067:1,2016-10-16T11:40Z,30.0430,-88.6490,5.0,6.3,69.0,7.4,'1111122,1111122,1111122' 
CenGOOS,ioos:station:wmo:42067:1,2016-10-16T14:40Z,30.0430,-88.6490,5.0,6.5,73.6,7.8,'1111122,1111122,1111122' 
CenGOOS,ioos:station:wmo:42067:1,2016-10-16T17:40Z,30.0430,-88.6490,5.0,5.1,92.6,5.9,'1111122,1111122,1111122' 
CenGOOS,ioos:station:wmo:42067:1,2016-10-16T20:40Z,30.0430,-88.6490,5.0,8.0,94.8,9.8,'1111122,1111122,1111122' 
CenGOOS,ioos:station:wmo:42067:1,2016-10-16T23:40Z,30.0430,-88.6490,5.0,8.3,97.4,9.4,'1111122,1111122,1111122' 
CenGOOS,ioos:station:wmo:42067:1,2016-10-17T02:40Z,30.0430,-88.6490,5.0,6.7,106.3,7.9,'1111122,1111122,1111122' 
CenGOOS,ioos:station:wmo:42067:1,2016-10-17T05:40Z,30.0430,-88.6490,5.0,6.8,110.9,8.2,'1111122,1111122,1111122' 
CenGOOS,ioos:station:wmo:42067:1,2016-10-17T08:40Z,30.0430,-88.6490,5.0,7.4,113.0,8.8,'1111122,1111122,1111122' 
CenGOOS,ioos:station:wmo:42067:1,2016-10-17T11:40Z,30.0430,-88.6490,5.0,7.5,106.8,8.7,'1111122,1111122,1111122' 
CenGOOS,ioos:station:wmo:42067:1,2016-10-17T14:40Z,30.0430,-88.6490,5.0,7.5,103.7,8.7,'1111122,1111122,1111122' 
CenGOOS,ioos:station:wmo:42067:1,2016-10-17T20:40Z,30.0430,-88.6490,5.0,4.0,284.0,5.4,'1111122,1111122,1111122' 
CenGOOS,ioos:station:wmo:42067:1,2016-10-17T23:40Z,30.0430,-88.6490,5.0,5.4,116.8,6.4,'1111122,1111122,1111122' 
CenGOOS,ioos:station:wmo:42067:1,2016-10-18T02:40Z,30.0430,-88.6490,5.0,6.4,126.3,7.4,'1111122,1111122,1111122' 
CenGOOS,ioos:station:wmo:42067:1,2016-10-18T05:40Z,30.0430,-88.6490,5.0,6.9,141.9,8.0,'1111122,1111122,1111122' 
CenGOOS,ioos:station:wmo:42067:1,2016-10-18T11:40Z,30.0430,-88.6490,5.0,4.1,142.2,4.8,'1111122,1111122,1111122' 
CenGOOS,ioos:station:wmo:42067:1,2016-10-18T14:40Z,30.0430,-88.6490,5.0,2.6,136.2,3.5,'1111122,1111122,1111122' 
CenGOOS,ioos:station:wmo:42067:1,2016-10-18T17:40Z,30.0430,-88.6490,5.0,2.8,139.9,3.4,'1111122,1111122,1111122' 
CenGOOS,ioos:station:wmo:42067:1,2016-10-18T23:40Z,30.0430,-88.6490,5.0,4.5,131.1,5.2,'1111122,1111122,1111122' 
CenGOOS,ioos:station:wmo:42067:1,2016-10-19T05:40Z,30.0430,-88.6490,5.0,4.5,134.0,5.7,'1111122,1111122,1111122' 
CenGOOS,ioos:station:wmo:42067:1,2016-10-19T08:40Z,30.0430,-88.6490,5.0,3.9,118.2,4.7,'1111122,1111122,1111122' 
CenGOOS,ioos:station:wmo:42067:1,2016-10-19T11:40Z,30.0430,-88.6490,5.0,2.4,103.5,2.9,'1111122,1111122,1111122' 
CenGOOS,ioos:station:wmo:42067:1,2016-10-19T14:40Z,30.0430,-88.6490,5.0,5.8,113.2,7.0,'1111122,1111122,1111122' 
CenGOOS,ioos:station:wmo:42067:1,2016-10-19T17:40Z,30.0430,-88.6490,5.0,4.5,115.2,5.4,'1111122,1111122,1111122' 
CenGOOS,ioos:station:wmo:42067:1,2016-10-19T23:40Z,30.0430,-88.6490,5.0,4.0,112.2,4.8,'1111122,1111122,1111122' 
CenGOOS,ioos:station:wmo:42067:1,2016-10-20T02:40Z,30.0430,-88.6490,5.0,5.6,115.3,6.8,'1111122,1111122,1111122' 
CenGOOS,ioos:station:wmo:42067:1,2016-10-20T05:40Z,30.0430,-88.6490,5.0,5.7,135.3,6.7,'1111122,1111122,1111122' 
CenGOOS,ioos:station:wmo:42067:1,2016-10-20T08:40Z,30.0430,-88.6490,5.0,4.0,134.2,4.8,'1111122,1111122,1111122' 
CenGOOS,ioos:station:wmo:42067:1,2016-10-20T14:40Z,30.0430,-88.6490,5.0,3.7,57.3,4.2,'1111122,1111122,1111122' 
CenGOOS,ioos:station:wmo:42067:1,2016-10-20T17:40Z,30.0430,-88.6490,5.0,1.9,42.9,2.5,'1111122,1111122,1111122' 
CenGOOS,ioos:station:wmo:42067:1,2016-10-20T23:40Z,30.0430,-88.6490,5.0,3.4,190.3,4.0,'1111122,1111122,1111122' 
CenGOOS,ioos:station:wmo:42067:1,2016-10-21T02:40Z,30.0430,-88.6490,5.0,4.3,216.0,4.9,'1111122,1111122,1111122' 
CenGOOS,ioos:station:wmo:42067:1,2016-10-21T05:40Z,30.0430,-88.6490,5.0,6.5,310.3,9.0,'1111122,1111122,1111122' 
CenGOOS,ioos:station:wmo:42067:1,2016-10-21T08:40Z,30.0430,-88.6490,5.0,10.8,10.7,13.0,'1111122,1111122,1111122' 
CenGOOS,ioos:station:wmo:42067:1,2016-10-21T11:40Z,30.0430,-88.6490,5.0,10.9,25.0,13.2,'1111122,1111122,1111122' 
CenGOOS,ioos:station:wmo:42067:1,2016-10-21T14:40Z,30.0430,-88.6490,5.0,11.8,32.2,15.1,'1111122,1111122,1111122' 
CenGOOS,ioos:station:wmo:42067:1,2016-10-21T17:40Z,30.0430,-88.6490,5.0,10.0,20.9,12.3,'1111122,1111122,1111122' 
CenGOOS,ioos:station:wmo:42067:1,2016-10-21T20:40Z,30.0430,-88.6490,5.0,9.3,24.9,11.3,'1111122,1111122,1111122' 
CenGOOS,ioos:station:wmo:42067:1,2016-10-21T23:40Z,30.0430,-88.6490,5.0,9.0,21.1,11.9,'1111122,1111122,1111122' 
CenGOOS,ioos:station:wmo:42067:1,2016-10-22T02:40Z,30.0430,-88.6490,5.0,8.8,34.7,10.8,'1111122,1111122,1111122' 
CenGOOS,ioos:station:wmo:42067:1,2016-10-22T08:40Z,30.0430,-88.6490,5.0,11.9,40.7,14.0,'1111122,1111122,1111122' 
CenGOOS,ioos:station:wmo:42067:1,2016-10-22T11:40Z,30.0430,-88.6490,5.0,8.9,45.3,10.8,'1111122,1111122,1111122' 
CenGOOS,ioos:station:wmo:42067:1,2016-10-22T20:40Z,30.0430,-88.6490,5.0,4.1,15.6,6.0,'1111122,1111122,1111122' 
CenGOOS,ioos:station:wmo:42067:1,2016-10-22T23:40Z,30.0430,-88.6490,5.0,3.5,12.5,5.5,'1111122,1111122,1111122' 
CenGOOS,ioos:station:wmo:42067:1,2016-10-23T02:40Z,30.0430,-88.6490,5.0,2.6,33.3,3.8,'1111122,1111122,1111122' 
CenGOOS,ioos:station:wmo:42067:1,2016-10-23T05:40Z,30.0430,-88.6490,5.0,3.3,34.7,4.8,'1111122,1111122,1111122' 
CenGOOS,ioos:station:wmo:42067:1,2016-10-23T08:40Z,30.0430,-88.6490,5.0,4.1,47.0,5.5,'1111122,1111122,1111122' 
CenGOOS,ioos:station:wmo:42067:1,2016-10-23T14:40Z,30.0430,-88.6490,5.0,5.7,81.6,7.2,'1111122,1111122,1111122' 
CenGOOS,ioos:station:wmo:42067:1,2016-10-23T20:40Z,30.0430,-88.6490,5.0,3.5,108.4,5.2,'1111122,1111122,1111122' 
CenGOOS,ioos:station:wmo:42067:1,2016-10-23T23:40Z,30.0430,-88.6490,5.0,1.6,121.8,2.7,'1111122,1111122,1111122' 
CenGOOS,ioos:station:wmo:42067:1,2016-10-24T02:40Z,30.0430,-88.6490,5.0,1.8,127.0,2.5,'1111122,1111122,1111122' 
CenGOOS,ioos:station:wmo:42067:1,2016-10-24T05:40Z,30.0430,-88.6490,5.0,1.3,152.6,2.5,'1111122,1111122,1111122' 
CenGOOS,ioos:station:wmo:42067:1,2016-10-24T08:40Z,30.0430,-88.6490,5.0,1.8,349.4,2.7,'1111122,1111122,1111122' 
CenGOOS,ioos:station:wmo:42067:1,2016-10-24T11:40Z,30.0430,-88.6490,5.0,4.3,35.0,5.1,'1111122,1111122,1111122' 
CenGOOS,ioos:station:wmo:42067:1,2016-10-24T14:40Z,30.0430,-88.6490,5.0,4.2,37.7,5.5,'1111122,1111122,1111122' 
CenGOOS,ioos:station:wmo:42067:1,2016-10-24T20:40Z,30.0430,-88.6490,5.0,1.0,288.0,1.7,'1111122,1111122,1111122' 
CenGOOS,ioos:station:wmo:42067:1,2016-10-24T23:40Z,30.0430,-88.6490,5.0,1.9,240.9,2.7,'1111122,1111122,1111122' 
CenGOOS,ioos:station:wmo:42067:1,2016-10-25T02:40Z,30.0430,-88.6490,5.0,2.8,305.2,4.4,'1111122,1111122,1111122' 
CenGOOS,ioos:station:wmo:42067:1,2016-10-25T05:40Z,30.0430,-88.6490,5.0,3.6,334.1,4.7,'1111122,1111122,1111122' 
CenGOOS,ioos:station:wmo:42067:1,2016-10-25T08:40Z,30.0430,-88.6490,5.0,4.6,2.1,6.0,'1111122,1111122,1111122' 
CenGOOS,ioos:station:wmo:42067:1,2016-10-25T11:40Z,30.0430,-88.6490,5.0,3.3,44.8,4.1,'1111122,1111122,1111122' 
CenGOOS,ioos:station:wmo:42067:1,2016-10-25T17:40Z,30.0430,-88.6490,5.0,3.0,68.2,3.8,'1111122,1111122,1111122' 
CenGOOS,ioos:station:wmo:42067:1,2016-10-25T20:40Z,30.0430,-88.6490,5.0,1.8,72.3,2.3,'1111122,1111122,1111122' 
CenGOOS,ioos:station:wmo:42067:1,2016-10-25T23:40Z,30.0430,-88.6490,5.0,1.1,132.9,1.5,'1111122,1111122,1111122' 
CenGOOS,ioos:station:wmo:42067:1,2016-10-26T05:40Z,30.0430,-88.6490,5.0,6.1,120.9,8.0,'1111122,1111122,1111122' 
CenGOOS,ioos:station:wmo:42067:1,2016-10-26T08:40Z,30.0430,-88.6490,5.0,6.0,134.1,7.2,'1111122,1111122,1111122' 
CenGOOS,ioos:station:wmo:42067:1,2016-10-26T17:40Z,30.0430,-88.6490,5.0,2.6,121.9,3.4,'1111122,1111122,1111122' 
CenGOOS,ioos:station:wmo:42067:1,2016-10-26T20:40Z,30.0430,-88.6490,5.0,5.1,122.5,6.0,'1111122,1111122,1111122' 
CenGOOS,ioos:station:wmo:42067:1,2016-10-26T23:40Z,30.0430,-88.6490,5.0,7.0,117.1,8.2,'1111122,1111122,1111122' 
CenGOOS,ioos:station:wmo:42067:1,2016-10-27T02:40Z,30.0430,-88.6490,5.0,7.1,120.5,8.6,'1111122,1111122,1111122' 
CenGOOS,ioos:station:wmo:42067:1,2016-10-27T05:40Z,30.0430,-88.6490,5.0,6.3,113.2,7.6,'1111122,1111122,1111122' 
CenGOOS,ioos:station:wmo:42067:1,2016-10-27T11:40Z,30.0430,-88.6490,5.0,6.1,67.8,7.8,'1111122,1111122,1111122' 
 
DISCLAIMER: The Gulf of Mexico Coastal and Ocean Observing (GCOOS) Data Portal aggregates data from the regional data providers for the convenience of all data users. Data published on this website should not be used for navigation or certain other uses as we cannot guarantee data accuracy or availability. The data and delivery services are provided 'as is' without warranty of any kind. Data Source: Gulf of Mexico Coastal Ocean Observing System Data Portal (http://data.gcoos.org/) 
